QPF
0.01 0.01 0.01 0.01 0.01 0.00 0.00 0.00 0.00 0.00 0.00 0.00 0.00 0.00 0.00 0.00 0.00 0.00 0.00 0.00 0.00 0.00 0.00 0.00 0.00 0.00 0.00 0.00 0.00 0.00 0.00 0.00 0.00 0.00 0.00 0.00 0.00 0.00 0.00 0.00 0.00 0.01 0.01 0.01
0.01 0.01 0.02 0.01 0.01 0.00 0.00 0.00 0.00 0.00 0.00 0.00 0.00 0.00 0.00 0.00 0.00 0.00 0.00 0.00 0.00 0.00 0.00 0.00 0.00 0.00 0.00 0.00 0.00 0.00 0.00 0.00 0.00 0.00 0.00 0.00 0.00 0.00 0.00 0.00 0.00 0.00 0.00 0.01
0.01 0.02 0.02 0.03 0.02 0.01 0.00 0.00 0.00 0.00 0.00 0.00 0.00 0.00 0.00 0.00 0.00 0.00 0.00 0.00 0.00 0.00 0.00 0.00 0.00 0.00 0.00 0.00 0.00 0.00 0.00 0.00 0.00 0.00 0.00 0.00 0.00 0.00 0.00 0.00 0.00 0.00 0.00 0.01
0.01 0.01 0.02 0.03 0.02 0.01 0.01 0.00 0.00 0.00 0.00 0.00 0.00 0.00 0.00 0.00 0.00 0.00 0.00 0.00 0.00 0.00 0.00 0.00 0.00 0.00 0.00 0.00 0.00 0.00 0.00 0.00 0.00 0.00 0.00 0.00 0.00 0.00 0.00 0.00 0.00 0.00 0.01 0.01
0.00 0.01 0.02 0.02 0.02 0.02 0.00 0.00 0.00 0.00 0.00 0.00 0.00 0.00 0.00 0.00 0.00 0.00 0.00 0.00 0.00 0.00 0.00 0.00 0.00 0.00 0.00 0.00 0.00 0.00 0.00 0.00 0.00 0.00 0.00 0.00 0.00 0.00 0.00 0.01 0.01 0.01 0.01 0.01
0.01 0.02 0.03 0.02 0.01 0.01 0.00 0.00 0.00 0.00 0.00 0.00 0.00 0.00 0.00 0.00 0.00 0.00 0.00 0.00 0.00 0.00 0.00 0.00 0.00 0.00 0.00 0.00 0.00 0.00 0.00 0.00 0.00 0.00 0.00 0.00 0.00 0.01 0.01 0.01 0.01 0.01 0.01 0.02
0.01 0.02 0.02 0.01 0.01 0.01 0.00 0.00 0.00 0.00 0.00 0.00 0.00 0.00 0.00 0.00 0.00 0.00 0.00 0.00 0.00 0.00 0.00 0.00 0.00 0.00 0.00 0.00 0.00 0.00 0.00 0.00 0.00 0.00 0.01 0.01 0.01 0.01 0.02 0.02 0.02 0.02 0.02 0.02
0.02 0.02 0.01 0.01 0.00 0.00 0.00 0.00 0.00 0.00 0.00 0.00 0.00 0.00 0.00 0.00 0.00 0.00 0.00 0.00 0.00 0.00 0.00 0.00 0.00 0.00 0.00 0.00 0.00 0.00 0.00 0.00 0.00 0.00 0.01 0.00 0.01 0.01 0.01 0.01 0.01 0.01 0.02 0.02
0.01 0.00 0.00 0.00 0.00 0.00 0.00 0.00 0.00 0.00 0.00 0.00 0.00 0.00 0.00 0.00 0.00 0.00 0.00 0.00 0.00 0.00 0.00 0.00 0.00 0.00 0.00 0.00 0.00 0.00 0.00 0.00 0.00 0.00 0.01 0.01 0.01 0.01 0.01 0.01 0.02 0.02 0.02 0.02
0.00 0.00 0.00 0.00 0.00 0.00 0.00 0.00 0.00 0.00 0.00 0.00 0.00 0.00 0.00 0.00 0.00 0.00 0.00 0.00 0.00 0.00 0.00 0.00 0.00 0.00 0.00 0.00 0.00 0.00 0.00 0.00 0.00 0.00 0.00 0.01 0.01 0.01 0.01 0.02 0.02 0.02 0.02 0.02
0.00 0.00 0.00 0.00 0.00 0.00 0.00 0.00 0.00 0.00 0.00 0.00 0.00 0.00 0.00 0.00 0.00 0.00 0.00 0.00 0.00 0.00 0.00 0.00 0.00 0.00 0.00 0.00 0.00 0.00 0.00 0.00 0.00 0.01 0.01 0.01 0.01 0.01 0.02 0.02 0.02 0.02 0.02 0.01
0.00 0.00 0.00 0.00 0.00 0.00 0.00 0.00 0.00 0.00 0.00 0.00 0.00 0.00 0.00 0.00 0.00 0.00 0.00 0.00 0.00 0.00 0.00 0.00 0.00 0.00 0.00 0.00 0.00 0.00 0.00 0.00 0.00 0.01 0.01 0.01 0.01 0.01 0.02 0.01 0.01 0.01 0.01 0.01
0.00 0.00 0.00 0.00 0.00 0.00 0.00 0.00 0.00 0.00 0.00 0.00 0.00 0.00 0.00 0.00 0.00 0.00 0.00 0.00 0.00 0.00 0.00 0.00 0.00 0.00 0.00 0.00 0.00 0.00 0.00 0.01 0.01 0.01 0.01 0.02 0.02 0.02 0.03 0.02 0.01 0.01 0.01 0.01
0.00 0.00 0.00 0.00 0.00 0.00 0.00 0.00 0.00 0.00 0.00 0.00 0.00 0.00 0.00 0.00 0.00 0.01 0.00 0.00 0.00 0.00 0.00 0.00 0.00 0.00 0.00 0.00 0.00 0.00 0.00 0.01 0.01 0.01 0.01 0.02 0.02 0.03 0.03 0.02 0.02 0.01 0.01 0.01
0.00 0.00 0.00 0.00 0.00 0.00 0.00 0.00 0.00 0.00 0.00 0.00 0.00 0.00 0.00 0.00 0.01 0.01 0.00 0.00 0.00 0.00 0.00 0.00 0.00 0.00 0.00 0.00 0.00 0.00 0.00 0.01 0.01 0.01 0.02 0.02 0.03 0.03 0.02 0.02 0.03 0.02 0.02 0.01
0.00 0.00 0.00 0.00 0.00 0.00 0.00 0.00 0.00 0.00 0.00 0.00 0.00 0.00 0.00 0.00 0.01 0.00 0.00 0.00 0.00 0.00 0.00 0.00 0.00 0.00 0.00 0.00 0.00 0.00 0.00 0.01 0.01 0.01 0.02 0.02 0.02 0.02 0.02 0.02 0.03 0.03 0.03 0.02
0.01 0.01 0.00 0.00 0.00 0.00 0.00 0.00 0.01 0.00 0.00 0.00 0.00 0.00 0.00 0.01 0.00 0.00 0.00 0.00 0.00 0.00 0.00 0.00 0.00 0.00 0.00 0.00 0.00 0.00 0.00 0.01 0.01 0.01 0.02 0.02 0.02 0.02 0.02 0.03 0.03 0.03 0.03 0.02
0.01 0.01 0.00 0.00 0.01 0.01 0.01 0.01 0.01 0.01 0.00 0.00 0.00 0.00 0.00 0.00 0.00 0.00 0.00 0.00 0.00 0.00 0.00 0.00 0.00 0.00 0.00 0.00 0.00 0.00 0.01 0.01 0.01 0.01 0.02 0.02 0.01 0.02 0.02 0.02 0.03 0.03 0.02 0.01
0.01 0.01 0.01 0.01 0.01 0.01 0.01 0.01 0.01 0.01 0.01 0.00 0.00 0.00 0.00 0.00 0.00 0.00 0.00 0.00 0.00 0.00 0.00 0.00 0.00 0.00 0.00 0.00 0.00 0.00 0.01 0.01 0.01 0.01 0.02 0.01 0.02 0.02 0.02 0.02 0.02 0.02 0.02 0.02
0.02 0.01 0.01 0.00 0.01 0.01 0.01 0.01 0.01 0.01 0.00 0.00 0.01 0.00 0.00 0.00 0.00 0.00 0.00 0.00 0.00 0.00 0.00 0.00 0.00 0.00 0.00 0.00 0.00 0.00 0.01 0.01 0.01 0.01 0.01 0.01 0.01 0.02 0.02 0.02 0.02 0.02 0.02 0.02
0.02 0.02 0.02 0.02 0.02 0.02 0.02 0.01 0.01 0.01 0.00 0.00 0.00 0.00 0.00 0.00 0.00 0.00 0.00 0.00 0.01 0.01 0.01 0.00 0.00 0.00 0.00 0.00 0.00 0.00 0.01 0.01 0.01 0.01 0.01 0.01 0.01 0.02 0.02 0.02 0.02 0.02 0.02 0.03
0.03 0.03 0.03 0.03 0.03 0.03 0.02 0.02 0.01 0.01 0.01 0.01 0.01 0.00 0.00 0.00 0.00 0.00 0.00 0.01 0.01 0.01 0.01 0.01 0.00 0.00 0.00 0.00 0.00 0.00 0.00 0.01 0.01 0.01 0.01 0.01 0.01 0.02 0.02 0.02 0.02 0.02 0.02 0.02
0.03 0.04 0.04 0.04 0.03 0.03 0.02 0.01 0.01 0.01 0.01 0.01 0.01 0.01 0.00 0.00 0.00 0.01 0.02 0.02 0.02 0.02 0.01 0.01 0.00 0.00 0.00 0.00 0.00 0.00 0.00 0.00 0.00 0.01 0.00 0.01 0.01 0.01 0.02 0.01 0.01 0.02 0.03 0.03
0.02 0.02 0.02 0.02 0.02 0.02 0.02 0.01 0.01 0.01 0.01 0.01 0.01 0.01 0.01 0.01 0.01 0.02 0.03 0.03 0.02 0.01 0.00 0.00 0.00 0.00 0.00 0.00 0.01 0.00 0.00 0.00 0.00 0.00 0.00 0.01 0.01 0.01 0.01 0.01 0.01 0.01 0.01 0.02
0.01 0.01 0.00 0.00 0.00 0.00 0.01 0.01 0.01 0.01 0.01 0.01 0.01 0.01 0.01 0.02 0.04 0.05 0.04 0.03 0.02 0.01 0.00 0.00 0.00 0.00 0.00 0.00 0.00 0.01 0.00 0.00 0.00 0.00 0.00 0.00 0.01 0.01 0.01 0.01 0.01 0.01 0.01 0.01
0.01 0.01 0.01 0.01 0.00 0.00 0.00 0.01 0.01 0.01 0.01 0.01 0.01 0.02 0.03 0.03 0.04 0.04 0.04 0.03 0.02 0.01 0.01 0.00 0.00 0.00 0.00 0.00 0.00 0.00 0.00 0.00 0.00 0.00 0.00 0.00 0.00 0.00 0.01 0.01 0.00 0.01 0.01 0.01
0.01 0.01 0.01 0.00 0.00 0.00 0.00 0.01 0.01 0.01 0.01 0.01 0.02 0.03 0.04 0.04 0.05 0.04 0.04 0.03 0.02 0.01 0.00 0.00 0.00 0.00 0.00 0.00 0.00 0.00 0.00 0.00 0.00 0.00 0.00 0.00 0.00 0.00 0.01 0.01 0.01 0.01 0.01 0.01
MSLP
1012.95 1013.35 1013.84 1014.42 1015.05 1015.70 1016.30 1016.80 1017.15 1017.34 1017.35 1017.22 1016.98 1016.68 1016.38 1016.11 1015.91 1015.77 1015.68 1015.62 1015.54 1015.43 1015.26 1015.02 1014.71 1014.37 1013.99 1013.62 1013.25 1012.90 1012.57 1012.24 1011.90 1011.54 1011.16 1010.75 1010.33 1009.91 1009.50 1009.12 1008.77 1008.46 1008.17 1007.89
1013.20 1013.59 1014.01 1014.46 1014.94 1015.41 1015.85 1016.22 1016.51 1016.68 1016.75 1016.72 1016.62 1016.48 1016.32 1016.16 1016.01 1015.89 1015.76 1015.64 1015.48 1015.29 1015.06 1014.79 1014.48 1014.14 1013.80 1013.45 1013.10 1012.74 1012.38 1011.99 1011.58 1011.14 1010.67 1010.19 1009.70 1009.22 1008.78 1008.38 1008.02 1007.70 1007.41 1007.15
1013.63 1013.95 1014.25 1014.56 1014.87 1015.17 1015.45 1015.70 1015.91 1016.07 1016.17 1016.23 1016.25 1016.23 1016.18 1016.11 1016.01 1015.89 1015.75 1015.57 1015.35 1015.11 1014.83 1014.54 1014.23 1013.91 1013.60 1013.27 1012.93 1012.58 1012.19 1011.76 1011.28 1010.77 1010.22 1009.66 1009.11 1008.59 1008.11 1007.67 1007.29 1006.96 1006.67 1006.41
1014.12 1014.31 1014.48 1014.62 1014.76 1014.90 1015.04 1015.19 1015.33 1015.48 1015.61 1015.73 1015.84 1015.91 1015.95 1015.94 1015.88 1015.78 1015.62 1015.41 1015.16 1014.88 1014.58 1014.28 1013.98 1013.68 1013.39 1013.08 1012.75 1012.39 1011.98 1011.51 1010.99 1010.42 1009.82 1009.21 1008.61 1008.05 1007.53 1007.08 1006.68 1006.33 1006.02 1005.74
1014.48 1014.53 1014.54 1014.53 1014.53 1014.54 1014.57 1014.64 1014.74 1014.87 1015.03 1015.20 1015.37 1015.51 1015.61 1015.65 1015.63 1015.54 1015.38 1015.16 1014.89 1014.61 1014.31 1014.01 1013.72 1013.44 1013.16 1012.87 1012.54 1012.17 1011.74 1011.24 1010.69 1010.08 1009.45 1008.82 1008.20 1007.62 1007.09 1006.62 1006.20 1005.84 1005.51 1005.22
1014.56 1014.45 1014.33 1014.21 1014.10 1014.02 1014.00 1014.02 1014.11 1014.25 1014.43 1014.63 1014.84 1015.03 1015.17 1015.25 1015.26 1015.18 1015.04 1014.83 1014.58 1014.30 1014.01 1013.73 1013.45 1013.19 1012.91 1012.62 1012.28 1011.90 1011.45 1010.94 1010.37 1009.76 1009.12 1008.49 1007.88 1007.30 1006.78 1006.31 1005.89 1005.51 1005.17 1004.85
1014.26 1014.03 1013.82 1013.62 1013.47 1013.36 1013.33 1013.36 1013.45 1013.61 1013.82 1014.05 1014.28 1014.49 1014.66 1014.76 1014.79 1014.74 1014.62 1014.44 1014.21 1013.96 1013.70 1013.44 1013.18 1012.92 1012.64 1012.34 1011.99 1011.59 1011.13 1010.61 1010.04 1009.43 1008.82 1008.21 1007.63 1007.08 1006.59 1006.13 1005.72 1005.34 1004.99 1004.65
1013.58 1013.29 1013.03 1012.82 1012.68 1012.61 1012.61 1012.68 1012.82 1013.01 1013.24 1013.49 1013.74 1013.95 1014.12 1014.23 1014.28 1014.25 1014.15 1014.01 1013.82 1013.61 1013.38 1013.15 1012.91 1012.65 1012.37 1012.05 1011.68 1011.26 1010.78 1010.26 1009.69 1009.11 1008.53 1007.96 1007.43 1006.93 1006.47 1006.05 1005.66 1005.28 1004.93 1004.59
1012.61 1012.30 1012.07 1011.91 1011.83 1011.84 1011.92 1012.07 1012.27 1012.50 1012.76 1013.01 1013.25 1013.45 1013.61 1013.71 1013.76 1013.75 1013.69 1013.58 1013.44 1013.28 1013.09 1012.88 1012.66 1012.40 1012.11 1011.77 1011.37 1010.93 1010.44 1009.91 1009.36 1008.80 1008.26 1007.74 1007.25 1006.81 1006.40 1006.01 1005.65 1005.30 1004.96 1004.62
1011.48 1011.21 1011.04 1010.97 1011.01 1011.13 1011.33 1011.56 1011.83 1012.11 1012.38 1012.63 1012.85 1013.03 1013.16 1013.25 1013.29 1013.29 1013.26 1013.19 1013.10 1012.98 1012.83 1012.66 1012.44 1012.19 1011.88 1011.52 1011.10 1010.63 1010.13 1009.59 1009.05 1008.51 1008.00 1007.53 1007.09 1006.69 1006.33 1005.99 1005.66 1005.34 1005.02 1004.71
1010.30 1010.11 1010.04 1010.10 1010.27 1010.53 1010.84 1011.17 1011.51 1011.83 1012.11 1012.35 1012.54 1012.68 1012.79 1012.85 1012.89 1012.90 1012.89 1012.86 1012.81 1012.74 1012.63 1012.48 1012.28 1012.02 1011.71 1011.32 1010.88 1010.39 1009.86 1009.32 1008.78 1008.25 1007.77 1007.32 1006.92 1006.56 1006.24 1005.93 1005.64 1005.36 1005.08 1004.80
1009.17 1009.07 1009.12 1009.30 1009.61 1009.99 1010.42 1010.85 1011.25 1011.60 1011.89 1012.12 1012.29 1012.40 1012.47 1012.52 1012.55 1012.58 1012.59 1012.60 1012.59 1012.55 1012.48 1012.35 1012.16 1011.90 1011.57 1011.17 1010.70 1010.19 1009.64 1009.09 1008.54 1008.03 1007.55 1007.12 1006.74 1006.41 1006.11 1005.84 1005.58 1005.33 1005.09 1004.86
1008.10 1008.09 1008.24 1008.55 1008.97 1009.46 1009.98 1010.49 1010.95 1011.34 1011.64 1011.87 1012.02 1012.12 1012.18 1012.23 1012.26 1012.30 1012.34 1012.38 1012.41 1012.40 1012.35 1012.25 1012.06 1011.80 1011.46 1011.04 1010.55 1010.02 1009.46 1008.90 1008.35 1007.83 1007.36 1006.93 1006.56 1006.24 1005.95 1005.70 1005.46 1005.24 1005.04 1004.85
1007.09 1007.14 1007.38 1007.77 1008.28 1008.85 1009.45 1010.01 1010.52 1010.94 1011.28 1011.52 1011.68 1011.79 1011.87 1011.93 1011.99 1012.06 1012.13 1012.20 1012.25 1012.27 1012.24 1012.14 1011.96 1011.70 1011.34 1010.91 1010.41 1009.87 1009.30 1008.73 1008.18 1007.66 1007.19 1006.77 1006.39 1006.07 1005.78 1005.53 1005.31 1005.11 1004.93 1004.78
1006.13 1006.22 1006.49 1006.93 1007.49 1008.11 1008.75 1009.36 1009.91 1010.38 1010.75 1011.03 1011.23 1011.38 1011.50 1011.60 1011.70 1011.81 1011.92 1012.02 1012.10 1012.13 1012.11 1012.01 1011.83 1011.56 1011.20 1010.76 1010.26 1009.71 1009.15 1008.59 1008.04 1007.53 1007.06 1006.63 1006.26 1005.92 1005.63 1005.37 1005.14 1004.95 1004.78 1004.65
1005.25 1005.33 1005.61 1006.05 1006.62 1007.26 1007.92 1008.55 1009.13 1009.64 1010.06 1010.39 1010.66 1010.87 1011.05 1011.22 1011.38 1011.54 1011.69 1011.82 1011.92 1011.96 1011.94 1011.84 1011.65 1011.37 1011.01 1010.57 1010.08 1009.55 1009.01 1008.47 1007.94 1007.44 1006.98 1006.56 1006.18 1005.83 1005.52 1005.25 1005.00 1004.79 1004.62 1004.49
1004.52 1004.57 1004.81 1005.22 1005.75 1006.37 1007.02 1007.66 1008.26 1008.80 1009.26 1009.66 1010.00 1010.29 1010.55 1010.79 1011.02 1011.23 1011.42 1011.58 1011.69 1011.75 1011.72 1011.62 1011.43 1011.15 1010.79 1010.37 1009.90 1009.40 1008.89 1008.39 1007.89 1007.42 1006.98 1006.57 1006.18 1005.83 1005.50 1005.20 1004.93 1004.69 1004.49 1004.33
1004.05 1004.05 1004.22 1004.56 1005.03 1005.59 1006.19 1006.81 1007.40 1007.95 1008.46 1008.91 1009.31 1009.68 1010.01 1010.32 1010.61 1010.87 1011.10 1011.29 1011.42 1011.48 1011.46 1011.35 1011.16 1010.89 1010.56 1010.17 1009.74 1009.28 1008.82 1008.37 1007.92 1007.49 1007.07 1006.68 1006.30 1005.93 1005.59 1005.26 1004.95 1004.68 1004.44 1004.24
1003.96 1003.88 1003.97 1004.22 1004.59 1005.06 1005.59 1006.14 1006.69 1007.23 1007.74 1008.21 1008.65 1009.06 1009.45 1009.81 1010.15 1010.46 1010.72 1010.93 1011.07 1011.15 1011.14 1011.05 1010.88 1010.64 1010.34 1010.00 1009.62 1009.23 1008.83 1008.43 1008.04 1007.66 1007.28 1006.90 1006.53 1006.16 1005.80 1005.44 1005.10 1004.78 1004.50 1004.25
1004.29 1004.13 1004.13 1004.27 1004.52 1004.87 1005.29 1005.74 1006.21 1006.69 1007.16 1007.61 1008.05 1008.47 1008.88 1009.26 1009.63 1009.96 1010.25 1010.48 1010.65 1010.74 1010.77 1010.71 1010.59 1010.40 1010.17 1009.89 1009.58 1009.26 1008.94 1008.60 1008.27 1007.93 1007.59 1007.23 1006.87 1006.50 1006.12 1005.74 1005.37 1005.02 1004.69 1004.39
1004.99 1004.77 1004.68 1004.70 1004.82 1005.03 1005.31 1005.63 1005.98 1006.35 1006.73 1007.11 1007.50 1007.88 1008.27 1008.65 1009.01 1009.35 1009.66 1009.92 1010.13 1010.27 1010.35 1010.36 1010.30 1010.19 1010.04 1009.85 1009.63 1009.39 1009.13 1008.87 1008.59 1008.29 1007.98 1007.64 1007.28 1006.91 1006.52 1006.13 1005.74 1005.36 1005.00 1004.67
1005.95 1005.67 1005.49 1005.40 1005.39 1005.45 1005.57 1005.73 1005.93 1006.15 1006.40 1006.67 1006.96 1007.27 1007.60 1007.94 1008.29 1008.63 1008.95 1009.25 1009.50 1009.71 1009.87 1009.97 1010.01 1010.01 1009.96 1009.87 1009.74 1009.59 1009.41 1009.20 1008.97 1008.70 1008.41 1008.09 1007.74 1007.37 1006.98 1006.58 1006.18 1005.79 1005.42 1005.08
1006.96 1006.65 1006.40 1006.21 1006.07 1005.99 1005.94 1005.93 1005.96 1006.02 1006.11 1006.24 1006.40 1006.61 1006.86 1007.14 1007.45 1007.78 1008.13 1008.46 1008.78 1009.08 1009.33 1009.55 1009.71 1009.83 1009.90 1009.92 1009.90 1009.83 1009.72 1009.56 1009.37 1009.13 1008.85 1008.54 1008.19 1007.82 1007.43 1007.04 1006.65 1006.27 1005.91 1005.58
1007.81 1007.48 1007.19 1006.92 1006.68 1006.47 1006.28 1006.11 1005.97 1005.86 1005.79 1005.76 1005.79 1005.89 1006.04 1006.26 1006.53 1006.86 1007.22 1007.61 1008.00 1008.39 1008.76 1009.10 1009.40 1009.65 1009.85 1009.98 1010.06 1010.07 1010.02 1009.91 1009.75 1009.53 1009.26 1008.95 1008.61 1008.25 1007.87 1007.49 1007.13 1006.78 1006.45 1006.14
1008.34 1008.02 1007.71 1007.39 1007.08 1006.77 1006.46 1006.16 1005.88 1005.62 1005.41 1005.24 1005.15 1005.13 1005.20 1005.35 1005.59 1005.91 1006.29 1006.73 1007.20 1007.70 1008.18 1008.65 1009.08 1009.46 1009.78 1010.02 1010.19 1010.27 1010.28 1010.21 1010.07 1009.87 1009.61 1009.31 1008.98 1008.63 1008.27 1007.92 1007.59 1007.28 1006.99 1006.73
1008.48 1008.18 1007.87 1007.55 1007.20 1006.83 1006.45 1006.06 1005.68 1005.31 1004.99 1004.72 1004.52 1004.41 1004.41 1004.51 1004.72 1005.03 1005.44 1005.92 1006.46 1007.04 1007.63 1008.21 1008.76 1009.25 1009.68 1010.02 1010.27 1010.42 1010.48 1010.45 1010.33 1010.15 1009.90 1009.61 1009.30 1008.97 1008.64 1008.33 1008.04 1007.78 1007.54 1007.33
1008.26 1008.00 1007.72 1007.40 1007.06 1006.68 1006.27 1005.84 1005.40 1004.97 1004.58 1004.24 1003.98 1003.82 1003.76 1003.82 1004.01 1004.32 1004.74 1005.26 1005.85 1006.50 1007.16 1007.83 1008.46 1009.05 1009.55 1009.97 1010.29 1010.50 1010.61 1010.61 1010.53 1010.37 1010.15 1009.88 1009.59 1009.30 1009.01 1008.74 1008.50 1008.29 1008.11 1007.94
Thickness
5744 5752 5752 5747 5744 5740 5729 5716 5699 5698 5695 5698 5701 5702 5699 5695 5690 5685 5680 5675 5670 5663 5657 5651 5646 5640 5635 5629 5623 5618 5612 5606 5602 5598 5593 5589 5585 5582 5578 5575 5573 5570 5567 5565
5740 5752 5751 5745 5745 5740 5733 5726 5712 5701 5698 5708 5707 5701 5694 5691 5687 5681 5676 5672 5666 5660 5654 5647 5641 5635 5629 5623 5617 5611 5605 5600 5596 5591 5586 5581 5577 5574 5570 5566 5563 5560 5557 5555
5721 5737 5739 5724 5737 5734 5728 5726 5715 5700 5702 5706 5699 5696 5692 5689 5685 5679 5674 5668 5662 5656 5649 5642 5636 5630 5623 5617 5611 5605 5599 5594 5589 5584 5579 5575 5571 5567 5563 5559 5555 5552 5549 5546
5716 5720 5708 5725 5747 5741 5727 5721 5721 5714 5710 5707 5702 5697 5694 5689 5682 5676 5672 5666 5659 5651 5645 5639 5632 5626 5619 5612 5606 5599 5593 5588 5583 5578 5573 5569 5564 5560 5556 5552 5548 5544 5541 5539
5708 5706 5713 5732 5742 5737 5721 5713 5721 5714 5710 5706 5700 5692 5686 5687 5682 5676 5671 5664 5656 5649 5643 5635 5628 5622 5614 5607 5600 5593 5588 5582 5577 5572 5568 5563 5559 5554 5550 5545 5541 5537 5534 5531
5713 5706 5701 5722 5747 5749 5728 5704 5720 5716 5709 5703 5695 5676 5676 5684 5680 5675 5669 5661 5654 5647 5640 5632 5625 5617 5609 5601 5594 5588 5583 5578 5572 5567 5562 5557 5553 5549 5545 5540 5536 5532 5529 5526
5712 5707 5714 5740 5751 5742 5707 5704 5721 5717 5710 5703 5692 5685 5684 5683 5678 5673 5667 5660 5653 5644 5635 5627 5621 5612 5604 5596 5589 5583 5578 5573 5568 5562 5557 5553 5549 5544 5539 5535 5531 5527 5523 5521
5708 5701 5708 5748 5744 5727 5722 5727 5724 5717 5711 5705 5697 5693 5686 5681 5676 5670 5662 5656 5649 5638 5630 5623 5616 5608 5599 5591 5586 5580 5574 5568 5563 5558 5554 5551 5544 5540 5535 5530 5525 5521 5518 5515
5724 5724 5744 5752 5748 5746 5738 5730 5725 5718 5713 5706 5697 5690 5685 5679 5673 5666 5659 5651 5643 5634 5626 5619 5611 5603 5594 5588 5582 5576 5569 5563 5559 5554 5550 5545 5540 5536 5532 5527 5521 5517 5513 5510
5735 5743 5750 5752 5751 5746 5742 5735 5729 5722 5714 5707 5698 5690 5684 5675 5667 5661 5654 5647 5639 5630 5621 5614 5607 5599 5592 5585 5578 5571 5565 5560 5556 5551 5547 5543 5538 5534 5529 5524 5520 5515 5511 5508
5733 5742 5744 5746 5746 5743 5739 5734 5727 5721 5715 5706 5698 5689 5682 5672 5665 5658 5651 5644 5635 5626 5618 5611 5604 5596 5589 5582 5575 5568 5562 5558 5553 5549 5544 5540 5537 5533 5529 5525 5519 5515 5511 5507
5731 5742 5738 5739 5744 5744 5736 5729 5724 5718 5711 5705 5698 5688 5681 5670 5663 5656 5648 5641 5632 5624 5616 5609 5601 5593 5586 5579 5572 5566 5560 5556 5552 5547 5543 5539 5535 5533 5531 5527 5523 5519 5514 5508
5753 5755 5750 5749 5745 5743 5736 5730 5725 5718 5710 5701 5696 5688 5679 5669 5662 5654 5646 5638 5630 5622 5614 5606 5598 5591 5584 5577 5571 5564 5558 5554 5550 5546 5542 5538 5534 5531 5529 5529 5526 5522 5518 5513
5761 5755 5745 5744 5741 5740 5735 5730 5724 5717 5710 5702 5694 5686 5677 5668 5660 5652 5644 5637 5629 5621 5612 5604 5596 5588 5582 5575 5569 5564 5558 5555 5550 5546 5542 5538 5535 5532 5529 5526 5524 5523 5521 5516
5757 5755 5748 5745 5740 5736 5731 5724 5715 5708 5703 5697 5690 5682 5674 5666 5658 5651 5643 5635 5627 5618 5610 5602 5594 5587 5581 5574 5568 5563 5558 5554 5551 5547 5543 5540 5536 5533 5530 5528 5525 5523 5521 5519
5752 5750 5745 5740 5734 5730 5725 5719 5711 5705 5700 5693 5685 5679 5672 5665 5657 5649 5641 5633 5624 5615 5608 5600 5592 5585 5579 5573 5567 5562 5558 5556 5553 5548 5544 5541 5538 5535 5532 5530 5527 5525 5522 5520
5741 5735 5732 5729 5727 5725 5722 5718 5711 5705 5697 5691 5684 5677 5669 5660 5651 5644 5637 5631 5623 5615 5606 5598 5591 5584 5578 5572 5566 5561 5557 5555 5553 5548 5545 5542 5539 5536 5533 5531 5529 5527 5525 5524
5745 5741 5736 5731 5726 5721 5718 5714 5709 5702 5694 5689 5682 5673 5664 5656 5648 5642 5635 5628 5620 5612 5604 5597 5590 5583 5577 5571 5565 5560 5556 5553 5551 5548 5546 5543 5540 5537 5535 5533 5531 5529 5528 5527
5735 5733 5731 5728 5724 5719 5714 5709 5704 5699 5692 5685 5676 5668 5662 5655 5648 5640 5633 5625 5617 5608 5601 5595 5589 5582 5575 5570 5566 5560 5556 5553 5551 5548 5546 5543 5541 5538 5536 5534 5533 5531 5530 5529
5719 5719 5718 5717 5715 5710 5706 5703 5698 5691 5685 5679 5671 5664 5657 5651 5644 5637 5630 5621 5614 5607 5600 5593 5586 5579 5574 5568 5565 5560 5556 5554 5551 5548 5545 5542 5540 5538 5537 5535 5534 5532 5531 5530
5699 5700 5699 5699 5698 5697 5694 5692 5688 5682 5678 5672 5665 5659 5653 5646 5640 5633 5625 5616 5610 5604 5597 5591 5583 5577 5572 5567 5563 5559 5556 5553 5550 5546 5544 5542 5540 5538 5536 5535 5534 5533 5532 5531
5682 5683 5682 5682 5681 5680 5680 5679 5677 5674 5669 5665 5660 5655 5647 5640 5634 5628 5623 5615 5608 5601 5593 5586 5580 5575 5570 5566 5562 5558 5555 5552 5548 5545 5543 5541 5539 5537 5536 5535 5534 5533 5532 5531
5667 5668 5668 5667 5666 5667 5668 5667 5665 5663 5660 5657 5654 5649 5643 5637 5630 5622 5615 5609 5603 5597 5589 5582 5578 5574 5569 5563 5559 5556 5553 5550 5546 5543 5542 5540 5538 5537 5535 5535 5534 5533 5532 5531
5653 5654 5655 5655 5655 5654 5653 5655 5655 5653 5652 5650 5649 5646 5639 5632 5625 5620 5614 5606 5599 5592 5585 5578 5575 5571 5566 5560 5556 5553 5550 5547 5544 5542 5540 5539 5537 5536 5534 5534 5533 5533 5532 5531
5637 5638 5639 5639 5638 5640 5641 5643 5643 5643 5642 5640 5639 5638 5634 5629 5622 5614 5606 5600 5593 5586 5579 5574 5570 5566 5562 5557 5553 5550 5547 5544 5542 5540 5538 5536 5535 5534 5533 5532 5531 5531 5531 5530
5621 5622 5624 5624 5626 5628 5629 5630 5629 5629 5629 5628 5628 5626 5623 5619 5614 5607 5600 5593 5587 5581 5574 5568 5564 5561 5557 5553 5549 5546 5543 5541 5538 5536 5535 5534 5533 5532 5531 5530 5530 5529 5528 5528
5606 5607 5608 5610 5612 5614 5615 5615 5615 5615 5615 5615 5614 5614 5612 5608 5603 5597 5591 5585 5579 5574 5568 5563 5558 5554 5551 5547 5544 5541 5539 5536 5534 5532 5531 5530 5530 5529 5528 5527 5526 5526 5525 5525